Theta_e
305 306 308 312 324 336 338 336 335 334 334 337 339 339 339 339 338 338 338 335 334 335 334 334 334 336 339 340 340 338 337 335 337 334 333 334 336 336 337 337 336 335 336
303 306 306 310 311 327 337 338 336 335 334 337 339 341 341 338 338 338 337 336 335 336 334 331 328 335 338 339 338 338 333 333 333 331 327 324 327 332 334 337 337 336 336
304 308 307 305 309 313 326 338 339 338 336 337 336 335 336 334 334 333 334 335 335 336 335 332 332 335 338 338 339 337 333 330 330 330 326 320 322 322 328 330 334 336 336
306 307 310 309 305 310 317 334 340 340 338 336 338 337 338 335 334 338 337 335 334 335 335 333 333 335 339 337 337 335 334 333 331 331 330 328 326 324 324 330 331 333 333
306 308 312 313 311 307 312 321 336 341 340 337 338 339 336 338 335 331 333 329 329 332 336 336 336 336 338 338 338 336 336 336 333 332 329 328 326 325 324 323 327 331 333
306 309 313 314 313 314 310 316 331 338 339 336 337 337 337 333 330 328 330 328 326 326 332 337 338 339 338 336 336 337 337 337 335 334 332 331 330 326 324 323 324 325 330
305 308 310 311 314 314 316 315 327 334 338 335 335 334 336 333 333 332 331 327 326 325 326 335 337 337 338 337 336 336 336 336 335 334 333 333 333 331 329 327 326 325 328
304 306 310 310 312 313 316 318 322 329 333 334 334 332 330 332 331 333 333 331 331 330 329 332 338 338 338 337 336 336 335 334 334 333 333 332 332 332 332 330 327 324 323
305 305 308 311 311 313 313 315 320 323 325 332 332 330 326 326 328 331 332 333 333 332 329 334 337 337 337 337 336 335 334 333 332 332 332 332 332 332 332 332 330 328 322
304 307 307 309 311 311 313 314 315 315 320 328 334 334 330 326 326 329 330 332 333 332 333 335 337 337 337 337 336 334 332 331 330 330 330 330 331 332 332 332 330 328 327
302 305 308 309 310 311 313 314 315 314 314 316 324 330 333 333 329 327 329 330 331 332 332 334 335 336 336 337 335 333 330 329 326 328 328 327 328 329 329 329 329 328 327
302 304 306 309 310 312 313 313 314 315 315 316 316 317 323 328 330 331 330 331 330 330 331 332 334 335 336 335 335 330 329 326 323 322 324 324 325 325 325 327 328 328 327
302 303 303 306 308 311 314 314 315 314 315 316 316 316 315 317 321 326 327 328 330 329 328 331 331 333 334 332 333 328 326 324 322 322 320 320 321 321 322 323 326 327 328
301 302 302 302 305 308 312 313 314 316 317 317 315 314 315 316 317 318 322 325 327 325 324 327 330 331 331 331 327 325 323 322 321 319 318 317 319 319 323 322 320 322 323
301 301 302 302 303 305 307 310 311 313 315 315 316 316 317 317 317 317 317 319 324 325 323 324 324 326 326 326 326 323 321 321 319 317 317 317 319 318 321 318 318 320 320
300 300 302 302 303 304 306 307 307 309 313 313 314 316 317 318 319 317 317 317 317 321 323 322 322 320 323 313 314 319 320 318 317 316 317 319 318 317 315 313 313 318 320
298 298 299 301 302 303 305 305 306 308 309 311 313 315 316 316 317 319 317 316 316 315 317 321 322 321 322 310 309 311 318 317 316 316 317 316 317 317 321 314 312 312 310
297 298 299 300 301 303 304 305 307 307 308 310 311 312 314 314 314 315 314 315 316 315 315 315 319 322 322 308 306 310 319 318 317 317 317 318 319 318 318 317 317 318 318
297 298 300 301 300 301 302 302 301 303 304 307 308 310 310 310 311 311 312 314 315 315 314 315 316 318 320 307 304 309 320 320 318 317 317 318 318 310 304 317 316 316 317
297 298 299 298 298 298 298 297 297 298 299 302 305 309 310 310 308 308 308 310 311 312 313 313 314 313 316 306 304 308 317 317 317 318 318 307 314 305 301 318 317 316 317
297 299 298 297 297 297 296 295 296 296 298 300 302 304 306 307 308 309 307 306 306 306 308 309 310 310 309 309 302 300 313 315 316 316 316 317 303 302 300 303 318 316 319
297 298 296 296 296 295 294 294 294 296 297 298 298 299 300 302 304 303 303 304 305 303 303 303 304 305 307 302 300 298 302 306 312 314 316 317 302 300 299 300 303 300 307
297 297 295 295 295 294 294 293 294 296 296 296 296 297 298 299 300 300 300 300 300 300 301 301 301 302 303 304 300 299 298 298 305 311 310 305 302 300 301 298 300 298 310
296 296 295 294 293 295 296 296 297 298 296 295 295 295 295 296 297 298 298 297 297 297 298 299 299 300 302 303 304 304 305 301 303 304 307 306 306 304 308 307 304 309 312
293 293 293 293 294 295 296 296 296 296 295 295 295 295 295 295 295 296 296 296 298 298 298 298 299 299 299 301 301 302 304 305 304 304 306 307 308 309 310 311 312 310 311
293 293 292 292 292 293 293 293 294 295 294 293 293 294 295 295 296 296 296 295 295 295 294 295 297 301 298 295 295 295 295 295 296 302 304 305 306 306 308 309 311 311 309
Wind_Speed
8 7 6 6 4 5 8 13 13 11 10 7 7 3 6 6 3 5 7 7 5 6 5 3 3 4 4 3 3 3 2 0 1 1 1 1 3 3 2 4 5 7 8
10 6 9 4 6 8 9 9 15 12 13 10 8 3 5 3 2 4 4 6 8 8 7 7 5 5 3 4 4 3 2 2 1 3 1 2 3 2 2 3 4 7 7
14 16 14 9 7 11 12 15 17 15 14 11 6 3 4 3 1 1 2 6 8 8 7 7 6 4 4 4 4 4 5 3 1 1 3 2 1 2 1 0 4 6 6
8 8 12 13 10 14 14 15 13 14 14 15 13 11 7 7 4 5 4 4 7 7 8 8 7 6 4 4 4 4 3 4 4 2 1 2 2 1 3 1 2 2 5
11 13 14 13 14 13 13 14 13 12 14 16 16 12 7 6 2 2 6 4 4 6 7 7 7 6 5 5 6 6 5 2 3 3 2 1 1 1 1 2 3 2 2
11 11 13 13 12 10 8 6 12 13 14 15 15 16 15 9 5 4 6 5 4 4 6 7 7 6 6 6 5 4 5 4 3 3 3 3 2 2 2 3 3 3 3
10 13 16 16 15 15 9 2 4 6 9 13 14 15 14 12 14 11 9 6 4 4 7 8 7 6 7 7 5 5 4 4 4 4 3 2 2 2 2 2 1 1 2
11 11 12 12 11 12 13 8 5 3 1 3 9 10 9 9 9 9 7 7 6 7 6 8 7 7 7 6 6 4 4 4 3 5 4 3 3 3 3 3 2 1 1
14 12 12 11 12 11 11 11 9 4 4 2 2 6 4 7 11 7 6 7 7 5 7 9 10 8 8 9 8 5 5 5 4 4 5 3 3 3 3 2 2 2 1
13 15 11 12 10 10 7 8 9 8 7 6 3 4 4 5 6 5 8 9 9 7 8 10 11 10 9 8 8 5 4 6 4 4 5 3 2 3 3 3 3 2 2
8 9 12 9 10 8 10 9 7 8 9 8 8 6 3 5 5 6 6 8 7 9 10 11 11 11 11 10 9 9 8 8 5 4 5 5 5 3 3 2 2 2 2
6 6 9 10 9 10 9 9 11 9 6 7 10 10 8 4 4 5 8 6 10 7 11 10 11 12 12 12 12 10 10 10 9 7 6 5 4 4 3 2 3 2 3
9 7 7 8 8 10 9 8 8 8 8 8 5 7 8 11 10 5 2 2 7 10 8 8 11 12 13 13 12 12 11 10 9 9 7 7 6 5 3 3 4 3 2
7 8 8 5 4 5 7 8 7 6 6 6 6 6 5 5 6 9 11 8 5 6 6 8 10 11 12 13 12 13 10 10 9 9 8 8 8 7 7 5 5 4 4
9 8 9 9 6 6 6 5 5 5 5 6 7 7 5 4 2 5 6 7 9 5 2 6 5 7 9 10 13 13 12 10 9 7 7 7 8 10 9 6 5 5 3
6 9 11 10 10 8 7 7 6 6 4 4 4 6 7 7 5 3 3 8 7 9 5 5 5 6 4 4 7 5 8 8 8 8 7 6 9 9 11 10 11 8 5
6 9 8 8 8 9 9 9 9 6 6 5 5 5 5 6 6 5 5 6 6 6 8 9 7 6 7 10 10 9 7 8 8 8 7 6 6 8 8 9 7 7 8
9 11 10 8 6 6 8 8 9 8 8 7 8 6 6 6 7 5 5 8 7 7 7 9 9 7 4 8 10 13 7 6 7 7 9 9 8 8 9 8 7 7 6
8 10 10 10 9 7 6 6 8 9 10 9 9 8 9 7 5 5 7 6 6 8 11 8 15 6 3 5 8 6 5 6 7 8 8 8 7 9 12 8 8 7 6
10 11 11 9 7 9 6 7 10 10 11 11 11 10 9 8 8 5 3 2 3 6 6 8 8 9 8 6 7 8 4 6 7 5 5 9 9 10 12 8 8 7 7
14 13 12 11 11 7 5 8 11 13 14 12 11 8 6 5 6 5 3 3 3 3 2 2 1 3 3 5 7 10 5 6 6 5 5 6 13 14 11 14 9 10 7
14 13 11 11 10 7 6 11 13 13 11 12 13 12 10 7 5 5 4 4 4 4 5 3 4 4 5 8 8 10 10 8 5 5 4 5 10 14 13 10 12 10 9
13 9 9 12 12 9 9 14 15 12 12 11 12 10 8 9 7 7 6 5 5 6 6 6 7 8 5 5 11 12 11 12 7 7 8 11 12 13 10 12 14 8 6
11 10 12 14 15 12 12 15 16 13 12 13 13 11 11 11 10 8 8 9 9 8 8 9 10 9 9 8 7 7 7 10 8 7 8 9 10 10 9 6 8 7 7
12 12 13 15 17 15 16 15 16 14 13 13 13 12 10 11 10 10 10 10 11 11 10 10 10 10 11 10 11 12 9 8 8 5 5 7 8 9 8 8 7 7 7
14 13 14 14 15 15 15 15 14 14 14 13 11 9 8 8 9 8 10 18 20 17 19 17 15 10 14 9 15 16 15 12 11 5 9 10 9 11 10 9 10 8 9
Wind_Direction
306 294 311 323 262 199 185 192 181 173 160 170 170 166 205 201 198 208 195 177 175 174 174 191 197 200 203 193 154 140 144 60 107 120 7 334 319 318 155 196 206 214 223
345 332 299 243 243 239 236 200 200 179 187 185 179 170 170 186 182 191 196 172 178 181 183 186 198 196 181 194 172 156 147 147 161 126 109 17 349 351 262 219 215 225 224
345 344 340 299 247 211 206 217 200 191 190 171 134 92 90 77 146 155 220 205 175 176 181 183 182 182 181 187 177 162 146 148 85 163 136 113 210 314 326 192 229 233 234
335 322 333 326 292 251 228 211 211 191 185 173 177 179 182 181 200 201 199 201 170 173 179 182 182 185 187 178 175 171 168 143 141 129 69 67 120 142 329 313 300 276 257
341 338 342 325 298 275 243 212 200 199 188 184 186 180 181 194 156 166 185 186 181 173 183 188 185 189 187 185 182 176 161 135 138 134 140 96 89 97 142 275 314 309 289
344 346 345 342 336 327 265 223 198 196 188 186 184 185 188 177 162 170 200 209 179 175 191 188 187 186 185 184 188 171 164 159 134 142 150 162 170 166 163 231 274 270 299
350 354 358 357 355 1 356 3 232 202 196 191 186 189 192 185 196 190 195 189 168 193 205 184 186 191 190 184 168 166 170 170 170 162 173 172 186 149 166 185 257 290 311
349 355 358 352 355 24 13 10 38 17 30 234 239 195 188 194 203 196 193 200 197 199 177 189 190 196 185 177 171 170 168 166 172 174 173 173 187 181 179 183 177 293 299
349 345 348 360 352 10 39 31 14 30 59 43 238 248 246 197 199 182 188 195 203 196 180 184 193 192 191 179 174 179 172 162 167 185 178 182 188 190 193 188 183 183 271
350 350 350 350 356 348 347 45 59 42 13 355 205 216 226 223 199 176 200 193 204 191 179 186 194 191 192 183 172 166 152 162 171 170 171 177 169 184 188 190 190 197 184
344 344 350 346 346 354 355 350 34 40 43 39 9 344 287 214 201 214 209 217 208 198 196 197 197 196 191 183 183 185 161 164 168 166 178 180 168 172 182 184 172 182 183
332 349 357 0 0 353 354 4 352 7 21 50 65 36 3 343 270 259 234 233 228 210 216 205 201 198 194 184 191 176 178 166 175 176 178 180 167 154 166 156 153 173 196
348 351 1 3 360 356 358 355 8 357 347 353 43 83 51 29 21 353 343 309 275 248 206 207 210 209 195 187 189 179 179 174 180 167 178 184 166 160 164 159 143 134 142
330 334 343 338 337 348 351 357 357 344 340 340 359 8 56 92 40 24 5 354 278 265 269 237 216 218 200 189 173 171 174 178 182 170 177 179 177 166 165 164 157 145 131
329 335 328 323 320 332 331 330 331 333 337 340 329 317 314 336 9 72 42 351 333 290 270 235 243 240 187 190 176 178 175 179 178 169 180 186 186 179 173 160 175 150 132
319 328 325 325 320 320 314 312 315 316 315 317 307 307 309 303 294 317 18 338 327 340 17 273 214 173 230 233 242 189 172 171 163 186 192 185 187 196 190 185 173 170 155
309 312 298 299 309 309 306 303 300 298 300 291 279 282 287 295 291 252 243 224 288 308 13 332 273 215 184 195 206 183 178 171 186 187 186 187 202 187 194 209 197 202 189
299 304 302 298 288 292 305 308 315 310 297 290 289 288 269 265 279 263 231 235 218 228 244 276 299 281 185 187 216 209 195 174 197 198 198 196 197 190 180 179 191 209 207
262 267 275 278 292 294 297 308 317 316 313 299 283 276 283 278 256 258 264 246 218 227 216 211 229 299 312 164 207 207 222 217 215 206 186 201 213 207 176 174 192 205 222
261 267 257 253 258 274 288 304 308 302 298 297 292 283 271 255 261 274 286 260 255 233 226 215 205 218 234 202 183 193 202 237 242 229 224 199 215 220 176 191 187 209 219
269 267 264 260 257 252 261 275 287 283 285 286 288 289 285 258 239 243 235 245 283 307 306 277 224 187 176 177 170 170 176 204 233 224 211 209 207 229 207 205 191 207 182
282 273 265 264 262 256 256 267 269 272 274 277 280 279 270 260 258 236 246 254 230 236 250 250 270 238 219 215 215 202 201 192 209 236 224 247 213 214 223 195 229 199 165
288 277 257 269 270 258 247 265 274 272 267 264 270 270 267 266 249 239 230 225 230 235 240 242 250 257 250 239 229 239 224 199 206 225 215 210 222 227 239 207 221 165 193
294 293 294 286 282 277 265 275 283 277 265 264 264 262 260 258 251 246 244 244 240 236 229 232 235 232 230 227 224 229 242 242 233 217 226 216 222 229 227 220 203 202 202
302 300 294 292 291 295 292 291 290 283 273 269 264 256 245 243 245 238 238 239 241 231 230 233 238 234 235 225 210 207 217 224 220 186 218 231 225 228 230 230 219 195 193
309 306 302 298 298 297 294 292 286 276 272 273 269 261 257 252 250 240 240 229 234 220 219 225 235 239 242 211 203 207 216 213 198 205 223 226 220 223 220 223 221 210 198